Wind_Speed
32 32 32 33 33 34 34 34 35 35 35 35 35 35 35 35 34 34 34 34 34 34 34 34 34 34 34 34 34 34 34 33 33 33 33 33 34 34 34 34 34 35 35
33 32 33 33 34 34 34 35 35 36 36 37 37 36 36 36 36 36 36 36 36 36 36 35 36 36 36 36 36 36 36 36 36 35 35 35 35 36 36 37 37 37 37
33 32 33 34 35 35 35 36 37 37 37 37 37 37 37 37 37 38 38 37 37 37 38 38 37 38 38 38 39 39 39 39 39 38 38 38 38 38 38 39 39 39 40
35 36 34 34 35 36 36 37 38 38 38 39 39 39 39 39 39 39 39 39 39 39 39 40 40 40 40 41 41 41 41 41 41 40 40 40 40 40 40 41 41 41 41
37 37 37 35 36 36 37 38 39 39 39 40 40 40 40 40 40 40 40 40 39 40 40 41 41 41 41 42 41 42 42 42 43 42 42 42 42 42 42 43 42 42 43
38 38 38 38 37 37 38 39 39 40 40 40 41 41 41 40 41 41 42 42 41 42 43 43 43 43 43 43 43 43 43 43 44 44 44 44 44 44 44 45 45 45 45
39 39 39 39 39 39 39 39 40 40 41 42 42 42 42 42 42 43 43 43 44 45 44 44 44 44 44 44 45 45 44 44 44 44 45 45 45 45 45 46 46 47 47
39 39 38 39 40 40 40 40 41 41 41 42 43 43 43 43 43 44 44 45 45 46 45 45 45 46 46 46 46 46 46 45 45 45 45 46 46 46 46 47 48 48 49
38 39 38 39 40 39 40 42 42 42 42 43 44 44 45 45 45 45 46 46 47 47 47 47 46 47 47 47 47 47 47 46 47 47 48 47 47 48 48 48 49 50 50
37 38 38 39 40 40 41 42 43 43 44 44 45 46 46 46 47 47 47 48 49 49 49 48 48 48 48 48 48 48 48 48 48 49 48 49 49 50 50 49 49 50 50
38 38 38 39 40 40 41 43 44 44 44 45 45 46 47 48 48 49 48 48 49 50 50 50 49 49 49 49 49 50 50 50 49 49 50 50 51 51 51 50 50 50 50
38 38 38 39 40 40 41 42 44 45 45 45 46 47 47 48 49 50 49 49 50 50 50 50 50 50 51 51 50 50 51 51 51 51 51 51 51 52 52 52 51 51 50
38 38 38 38 39 39 40 41 43 44 45 46 46 47 47 47 48 49 49 49 48 48 49 50 51 51 51 52 52 52 52 51 52 52 51 51 52 52 52 52 52 51 51
39 40 39 39 40 41 40 41 42 44 46 46 47 47 48 48 49 49 49 49 48 48 48 49 50 51 51 52 52 52 52 52 52 52 52 52 52 53 52 51 51 52 51
40 40 41 41 41 42 43 43 44 44 45 45 46 47 47 48 49 49 49 49 49 48 48 49 49 50 51 51 51 51 51 52 52 52 52 52 52 52 52 51 52 52 51
40 40 40 42 42 43 44 44 44 45 45 45 45 45 46 47 48 49 50 50 49 49 49 49 49 49 49 49 50 50 50 51 51 51 51 51 52 52 52 52 53 53 52
41 41 41 41 42 43 45 46 46 46 46 46 46 46 47 48 48 49 49 49 49 49 48 47 47 48 48 49 49 49 49 50 50 50 50 50 50 51 52 52 53 52 52
40 41 42 42 42 44 45 46 46 45 46 46 46 46 47 47 46 46 47 47 47 47 46 46 47 47 48 48 48 48 48 49 48 48 49 49 49 50 50 50 51 51 50
39 39 41 42 43 43 44 44 44 44 44 44 44 45 45 46 45 45 45 46 46 46 46 46 46 46 47 47 47 47 47 48 48 47 47 47 48 47 48 49 48 49 49
38 38 39 40 42 42 43 43 42 42 42 42 43 43 43 43 43 43 44 44 44 45 45 46 45 45 45 45 45 45 46 47 47 46 46 46 47 47 46 47 47 48 48
38 38 39 39 40 40 40 40 41 41 41 41 41 41 41 42 42 43 42 42 42 43 44 44 43 43 43 44 44 44 44 44 44 44 44 44 45 45 45 45 45 45 45
38 38 38 38 38 38 38 38 38 39 39 39 39 40 40 40 41 41 41 42 42 42 42 42 41 40 40 41 41 41 41 41 42 42 42 43 43 43 43 43 43 43 43
37 37 37 38 38 38 37 37 37 37 37 38 38 38 39 39 39 40 40 41 41 41 41 41 41 40 40 40 40 40 40 39 39 40 41 41 42 42 42 42 42 42 41
35 36 36 36 36 35 35 35 36 36 36 36 37 37 38 38 38 39 39 40 40 40 40 40 40 40 39 39 38 38 38 38 38 39 40 39 39 40 40 40 39 38 38
33 33 34 34 34 34 34 35 35 35 35 35 35 35 36 36 37 38 38 38 38 38 39 39 39 38 37 37 37 37 37 37 37 37 38 38 38 37 37 36 37 37 36
32 32 32 32 33 33 33 33 34 34 34 34 34 34 34 35 35 35 36 36 36 36 37 37 37 37 36 36 36 36 36 36 36 36 36 36 36 35 34 35 36 36 35
Wind_Direction
255 257 258 256 255 255 254 256 256 257 257 257 258 259 259 260 261 262 264 264 265 266 267 268 269 269 270 269 268 269 269 269 269 270 271 272 272 273 274 275 275 276 276
256 256 257 257 256 256 256 256 257 257 258 258 258 259 260 261 261 263 263 265 266 266 267 269 269 269 270 270 270 269 269 269 269 270 271 272 273 273 274 275 276 276 277
256 256 256 256 257 258 258 259 259 259 258 258 259 260 260 261 263 262 263 264 266 267 267 267 268 269 270 270 270 270 269 269 269 270 270 271 272 273 275 276 276 277 277
258 257 258 257 258 259 260 261 261 260 260 259 259 261 261 262 263 263 263 265 266 266 266 267 268 268 269 270 271 270 270 270 270 270 270 271 272 273 274 275 276 277 277
260 259 259 259 259 260 261 260 261 260 261 260 261 261 262 262 263 264 264 264 266 267 267 267 268 269 269 270 271 271 270 270 270 270 270 271 272 273 274 275 277 277 277
261 260 260 261 260 261 262 262 261 261 261 261 262 262 262 262 263 264 265 265 266 267 267 268 269 269 270 270 271 271 272 272 270 270 270 271 272 272 273 274 275 276 277
262 261 260 261 262 262 263 263 262 261 261 262 261 261 262 263 264 264 265 266 268 268 269 269 270 270 270 271 271 271 271 272 271 270 270 271 272 273 274 275 275 276 277
261 262 260 261 262 262 263 263 262 263 263 263 263 262 263 264 264 265 266 268 268 268 268 269 270 270 270 271 271 270 271 271 271 270 271 272 273 274 275 276 275 276 276
262 262 262 262 262 263 263 263 264 264 265 264 264 264 265 265 266 267 268 268 268 268 269 270 270 270 270 270 270 270 270 270 271 271 271 272 273 274 275 276 276 277 277
263 263 263 263 264 264 265 266 266 265 265 266 266 266 266 267 268 268 269 268 268 269 270 270 270 270 269 269 269 269 270 271 272 272 273 274 274 275 275 275 276 276 277
263 264 265 265 266 267 267 267 267 267 266 266 267 268 268 268 268 269 269 269 269 269 269 269 269 269 269 270 270 271 271 272 272 272 273 274 275 276 275 276 276 277 277
264 266 267 268 267 267 268 268 267 268 267 267 268 269 269 269 269 269 269 269 269 269 269 269 269 269 269 270 271 272 272 272 273 273 275 275 275 275 275 276 277 277 277
264 265 266 268 268 268 269 269 269 269 269 269 268 269 270 270 270 270 269 270 270 269 269 269 269 270 270 270 271 272 272 272 273 274 275 276 276 275 275 276 276 277 278
264 265 266 267 266 268 270 272 271 271 270 270 269 269 270 271 271 270 270 270 270 270 270 270 270 270 270 270 271 272 272 273 273 274 274 275 276 275 275 275 275 276 277
265 266 267 268 269 270 271 272 273 274 272 270 270 270 271 271 270 270 270 271 270 270 269 269 270 270 270 270 271 272 273 273 273 274 274 274 275 274 274 274 275 275 276
266 268 270 271 271 272 272 272 274 274 273 272 270 270 271 271 271 270 270 271 271 271 270 270 270 271 271 270 270 271 272 273 273 274 274 274 275 275 275 275 275 276 276
267 269 271 270 271 272 273 272 274 274 273 271 270 270 270 271 271 271 271 272 271 271 270 269 269 270 271 271 271 272 273 273 274 274 275 275 276 276 276 275 275 276 276
270 271 272 271 273 275 275 274 274 274 273 271 271 271 271 272 272 272 272 271 270 270 270 270 270 271 271 272 271 271 272 273 274 275 275 276 276 276 276 275 276 276 276
271 272 273 274 275 276 276 274 273 274 273 271 271 271 271 272 272 272 272 271 270 270 270 270 270 271 271 271 272 271 272 273 274 275 276 277 277 277 277 277 276 277 276
273 274 276 276 276 276 276 275 274 274 273 272 272 272 272 272 271 271 271 271 271 270 269 269 270 270 271 271 272 272 272 273 274 274 275 277 278 278 278 278 277 277 277
274 275 277 277 277 278 278 278 276 275 274 274 273 273 272 272 272 271 271 271 271 271 270 269 270 271 271 272 273 273 273 273 274 274 275 277 278 278 278 279 278 279 279
275 276 277 278 279 280 280 279 278 277 275 274 274 273 273 273 272 271 271 271 271 270 270 269 269 271 272 273 273 273 273 274 274 274 275 276 277 278 279 279 278 278 279
276 277 278 279 280 280 279 279 278 277 275 274 275 274 274 274 273 272 271 271 271 270 270 270 270 271 272 273 273 273 273 274 275 275 275 275 277 278 278 278 278 278 278
278 278 278 279 279 279 279 278 277 276 275 276 275 274 273 273 273 272 272 272 271 270 269 269 270 271 272 272 272 272 273 274 275 275 276 276 277 278 278 277 278 278 280
281 281 281 280 279 278 277 276 276 275 275 276 276 276 274 274 273 273 273 273 271 270 270 270 271 271 271 271 272 273 274 274 275 275 276 278 278 278 277 277 278 279 281
281 281 280 280 279 278 277 277 276 276 277 278 278 277 276 275 274 274 275 274 272 271 271 271 271 270 270 270 271 273 274 275 276 277 277 279 279 278 278 277 278 279 282
Height
5783 5785 5786 5786 5787 5789 5790 5791 5792 5793 5794 5795 5796 5797 5798 5799 5799 5799 5800 5800 5800 5800 5800 5800 5800 5800 5800 5800 5800 5799 5799 5799 5799 5799 5798 5798 5798 5797 5797 5796 5796 5795 5794
5776 5777 5778 5779 5780 5781 5782 5783 5784 5785 5786 5787 5788 5789 5790 5790 5791 5791 5792 5792 5792 5792 5792 5792 5792 5792 5792 5792 5792 5791 5791 5791 5791 5791 5791 5790 5790 5789 5789 5788 5788 5787 5786
5767 5769 5770 5771 5772 5773 5774 5775 5776 5777 5778 5779 5780 5780 5781 5782 5782 5783 5783 5783 5783 5783 5783 5783 5783 5783 5783 5783 5783 5783 5783 5783 5783 5782 5782 5782 5781 5781 5780 5780 5779 5778 5777
5759 5760 5761 5763 5763 5764 5765 5766 5767 5768 5769 5770 5771 5772 5772 5773 5773 5774 5774 5774 5774 5774 5774 5774 5774 5773 5773 5773 5773 5773 5773 5773 5773 5773 5773 5773 5772 5772 5771 5770 5769 5768 5768
5751 5752 5752 5753 5754 5755 5756 5757 5758 5759 5760 5761 5762 5762 5763 5763 5764 5764 5764 5764 5764 5764 5764 5764 5764 5763 5763 5763 5763 5763 5763 5763 5763 5763 5763 5763 5762 5762 5761 5760 5759 5758 5757
5741 5743 5743 5744 5745 5746 5747 5748 5748 5749 5750 5751 5752 5753 5753 5754 5754 5754 5754 5754 5754 5754 5753 5753 5753 5753 5753 5753 5752 5752 5752 5752 5752 5752 5752 5752 5752 5751 5751 5750 5749 5748 5747
5732 5733 5734 5735 5736 5737 5738 5738 5739 5740 5740 5741 5742 5743 5744 5744 5744 5744 5744 5744 5744 5743 5743 5743 5742 5742 5742 5742 5741 5741 5741 5741 5741 5741 5741 5741 5741 5740 5740 5739 5738 5737 5735
5723 5723 5725 5726 5727 5728 5728 5729 5729 5730 5730 5731 5732 5732 5733 5734 5734 5734 5734 5733 5733 5732 5732 5732 5731 5731 5731 5731 5730 5730 5730 5730 5730 5730 5730 5730 5730 5729 5728 5727 5726 5725 5724
5714 5715 5716 5716 5717 5718 5719 5719 5719 5720 5720 5720 5720 5721 5721 5722 5723 5723 5723 5722 5722 5721 5721 5721 5720 5720 5720 5719 5719 5719 5719 5718 5718 5718 5718 5718 5717 5717 5716 5715 5714 5713 5712
5705 5706 5706 5707 5707 5708 5708 5708 5709 5709 5709 5709 5709 5709 5710 5710 5710 5711 5711 5710 5710 5709 5709 5709 5709 5708 5708 5708 5708 5707 5707 5707 5706 5706 5706 5705 5705 5704 5703 5703 5701 5700 5699
5696 5696 5697 5697 5697 5698 5698 5698 5697 5697 5697 5697 5697 5697 5697 5697 5697 5698 5699 5699 5698 5697 5697 5697 5696 5696 5696 5695 5695 5695 5694 5694 5694 5694 5693 5693 5692 5691 5690 5689 5688 5687 5686
5686 5687 5687 5687 5687 5687 5687 5686 5685 5685 5685 5685 5685 5685 5685 5685 5685 5685 5686 5686 5686 5685 5685 5684 5684 5684 5683 5683 5682 5682 5682 5681 5681 5681 5680 5680 5679 5677 5677 5675 5675 5674 5672
5676 5677 5677 5677 5677 5677 5676 5675 5674 5674 5673 5673 5673 5673 5673 5673 5673 5672 5673 5673 5673 5673 5672 5671 5671 5671 5670 5670 5669 5669 5669 5669 5668 5667 5667 5666 5665 5664 5663 5662 5661 5660 5659
5666 5666 5666 5666 5666 5666 5665 5664 5663 5662 5662 5661 5661 5661 5661 5661 5660 5660 5660 5659 5660 5660 5660 5659 5658 5657 5657 5657 5656 5656 5656 5655 5654 5654 5653 5652 5651 5650 5649 5649 5648 5646 5645
5655 5655 5655 5655 5655 5655 5654 5653 5652 5651 5650 5649 5649 5649 5648 5648 5648 5647 5646 5646 5646 5647 5647 5646 5645 5644 5644 5643 5643 5642 5642 5641 5640 5639 5639 5638 5637 5636 5635 5634 5633 5632 5631
5644 5644 5645 5644 5644 5643 5642 5641 5640 5639 5638 5636 5636 5636 5636 5635 5635 5634 5633 5632 5632 5632 5633 5633 5632 5631 5630 5630 5629 5629 5628 5627 5627 5626 5625 5624 5623 5622 5621 5620 5619 5618 5617
5634 5634 5633 5633 5632 5632 5630 5629 5628 5626 5625 5624 5624 5623 5623 5623 5622 5621 5620 5619 5619 5618 5619 5620 5619 5618 5617 5617 5616 5616 5615 5614 5614 5613 5612 5610 5609 5608 5607 5606 5605 5604 5603
5623 5623 5622 5621 5620 5619 5618 5617 5615 5614 5612 5612 5611 5610 5610 5609 5609 5608 5607 5606 5606 5605 5606 5607 5606 5605 5605 5604 5604 5603 5602 5602 5601 5600 5599 5598 5596 5595 5593 5592 5591 5590 5589
5612 5611 5610 5609 5608 5607 5606 5604 5602 5601 5600 5599 5598 5598 5597 5597 5596 5596 5595 5594 5594 5593 5593 5594 5594 5593 5592 5591 5591 5590 5590 5589 5588 5587 5586 5585 5583 5581 5580 5578 5577 5576 5575
5602 5601 5600 5598 5597 5595 5594 5592 5590 5588 5587 5586 5586 5585 5585 5584 5584 5583 5583 5582 5581 5581 5581 5581 5581 5581 5580 5579 5579 5578 5578 5577 5576 5574 5573 5572 5570 5569 5567 5566 5565 5563 5562
5591 5590 5589 5588 5586 5584 5582 5580 5578 5577 5576 5575 5574 5574 5573 5572 5572 5571 5571 5570 5569 5569 5568 5568 5569 5569 5568 5568 5567 5566 5565 5564 5563 5562 5561 5560 5559 5557 5555 5553 5552 5550 5549
5581 5580 5578 5577 5575 5573 5571 5569 5567 5566 5565 5564 5563 5563 5562 5561 5560 5559 5559 5558 5557 5557 5557 5557 5557 5557 5557 5556 5555 5554 5553 5553 5552 5552 5550 5548 5546 5545 5543 5541 5539 5538 5537
5571 5569 5568 5566 5564 5563 5561 5559 5557 5556 5554 5554 5553 5552 5551 5550 5549 5548 5547 5547 5546 5545 5546 5546 5546 5546 5546 5545 5544 5543 5542 5541 5540 5539 5538 5537 5535 5533 5531 5529 5528 5526 5525
5560 5559 5557 5555 5554 5552 5550 5548 5547 5545 5544 5543 5542 5541 5540 5539 5538 5538 5537 5536 5535 5535 5535 5535 5535 5535 5534 5534 5533 5532 5531 5531 5530 5528 5527 5526 5524 5522 5520 5518 5516 5515 5513
5550 5549 5547 5545 5544 5542 5540 5539 5537 5535 5534 5533 5532 5531 5530 5529 5528 5527 5526 5526 5525 5525 5524 5524 5524 5524 5523 5523 5522 5522 5521 5520 5520 5518 5516 5515 5514 5512 5510 5508 5506 5504 5503
5541 5539 5538 5536 5534 5533 5531 5529 5527 5526 5525 5524 5523 5522 5520 5519 5518 5517 5516 5516 5515 5515 5514 5513 5513 5513 5513 5512 5512 5511 5511 5510 5509 5509 5507 5505 5504 5502 5502 5499 5497 5495 5493